[[{"header":{"parameterUnit":"m.s-1","parameterCategory":1,"la1":30.2991,"la2":30.254,"lo1":-89.0895,"lo2":-89.0444,"dy":0.0017,"dx":0.0017,"nx":28,"ny":28,"refTime":"2023-09-01T03:00:00:Z","depth":0,"parameterNumber":2,"parameterNumberName":"U-component_of_WINDS"},"data":[0,0,0,0,0,0,0,0,0,0,0,0,0,0,0,0,0,0,0,0,0,0,0,0,0,0,0,0,0,0,0,0,0,0,0,0,0,0,0,0,0,0,0,0,0,0,0,0,0,0,0,0,0,0,0,0,0,0,-1.8434,-1.8434,0,-1.8451,-1.8451,-1.8451,-1.8434,-1.8433,-1.8432,-1.8432,-1.8447,-1.8448,-1.8449,0,0,0,0,0,0,0,0,0,0,0,0,0,-1.8384,-1.8385,-1.8434,-1.8434,-1.8435,-1.8451,-1.8451,-1.8451,-1.8434,-1.8433,-1.8432,-1.8431,-1.8447,-1.8448,-1.8449,0,0,0,0,0,0,0,0,0,0,0,0,0,-1.8404,-1.8386,-1.8434,-1.8428,-1.8427,-1.8451,-1.8451,-1.8452,-1.8434,-1.8433,-1.8432,-1.8431,-1.8447,-1.8448,-1.845,-1.848,0,0,-1.8454,-1.8455,0,0,0,0,0,0,0,0,-1.8403,-1.8406,-1.8428,-1.8428,-1.8428,-1.8439,-1.8439,-1.8461,-1.8434,-1.8431,-1.8432,-1.843,-1.8445,-1.8447,-1.8452,-1.8481,-1.8481,-1.8455,-1.8456,-1.8456,-1.8457,0,0,0,0,0,0,0,-1.8402,-1.8405,-1.8441,-1.8429,-1.8428,-1.8423,-1.8425,-1.8443,-1.8444,-1.8432,-1.843,-1.8433,-1.8445,-1.8451,-1.8453,-1.8481,-1.8455,-1.8456,-1.8457,-1.8458,-1.8534,-1.8535,0,0,0,0,0,0,-1.8401,-1.8404,-1.844,-1.8441,-1.8413,-1.8425,-1.8427,-1.8437,-1.8444,-1.8444,-1.8433,-1.8432,-1.8449,-1.8451,-1.8453,-1.8487,-1.8456,-1.8458,-1.8459,-1.8533,-1.8534,-1.8535,0,0,0,0,0,0,-1.84,-1.8405,-1.844,-1.8422,-1.8426,-1.8427,-1.8438,-1.8437,-1.8443,-1.8445,-1.8445,-1.8439,-1.8448,-1.8451,-1.8473,-1.8488,-1.8458,-1.846,-1.8531,-1.8533,-1.8535,-1.8558,0,0,0,0,0,0,-1.8399,-1.8404,-1.8417,-1.8423,-1.8427,-1.846,-1.8439,-1.8438,-1.8446,-1.8444,-1.8451,-1.8451,-1.8447,-1.8471,-1.8475,-1.8489,-1.8461,-1.853,-1.8532,-1.8534,-1.8556,-1.856,-1.8564,0,0,0,0,0,-1.8397,-1.8422,-1.8417,-1.8422,-1.8443,-1.8461,-1.8464,-1.8459,-1.8448,-1.8459,-1.846,-1.8451,-1.8486,-1.8473,-1.8477,-1.8493,-1.8529,-1.8532,-1.8534,-1.8554,-1.8559,-1.8563,0,0,0,0,0,0,-1.8418,-1.8423,-1.8417,-1.8446,-1.8453,-1.8458,-1.8472,-1.8465,-1.8476,-1.8473,-1.8468,-1.8469,-1.8492,-1.8495,-1.8481,-1.8522,-1.8505,-1.8509,-1.8519,-1.8524,-1.8528,-1.8526,-1.8462,0,0,0,0,0,-1.8425,-1.8441,-1.8444,-1.8469,-1.8473,-1.8472,-1.848,-1.8476,-1.8483,-1.8486,-1.8489,-1.8496,-1.8508,-1.8516,-1.8528,-1.8556,-1.8557,-1.8569,-1.8573,-1.8576,-1.8579,-1.8592,-1.8597,-1.8543,-1.8543,-1.8543,0,0,-1.8442,-1.8446,-1.8456,-1.8473,-1.8478,-1.8493,-1.8475,-1.8492,-1.8502,-1.8489,-1.8509,-1.8512,-1.8519,-1.8544,-1.8555,-1.8547,-1.8594,-1.8579,-1.8582,-1.8583,-1.8595,-1.86,-1.8605,-1.8545,-1.8544,-1.8544,0,0,-1.8478,-1.8484,-1.8504,-1.851,-1.8518,-1.8517,-1.8522,-1.8528,-1.8529,-1.855,-1.854,-1.8552,-1.8574,-1.8579,-1.8585,-1.8623,-1.8614,-1.8627,-1.8647,-1.866,-1.8665,-1.8668,-1.868,-1.8685,-1.863,-1.863,-1.863,0,-1.8497,-1.8519,-1.8516,-1.8533,-1.8539,-1.8528,-1.8548,-1.8554,-1.8565,-1.857,-1.8561,-1.8587,-1.8591,-1.8617,-1.8626,-1.8631,-1.8635,-1.8625,-1.8665,-1.8668,-1.8672,-1.8683,-1.8688,-1.8631,-1.8631,-1.8631,-1.8631,0,-1.8541,-1.8557,-1.8572,-1.8584,-1.8592,-1.8611,-1.8609,-1.8618,-1.8613,-1.8613,-1.8634,-1.8639,-1.865,-1.8656,-1.8652,-1.8681,-1.8675,-1.8666,-1.8649,-1.8678,-1.8689,-1.8693,-1.8633,-1.8633,-1.8632,-1.8632,0,0,-1.8591,-1.86,-1.8605,-1.8609,-1.8617,-1.8629,-1.8646,-1.8658,-1.8665,-1.8674,-1.8687,-1.8706,-1.8697,-1.8703,-1.8699,-1.8711,-1.8739,-1.87,-1.87,-1.8705,-1.8769,-1.8775,-1.878,-1.8733,-1.8734,-1.8735,-1.8767,0,-1.8627,-1.8657,-1.8653,-1.8682,-1.8696,-1.8685,-1.87,-1.8706,-1.8706,-1.8717,-1.8717,-1.873,-1.8718,-1.8721,-1.8733,-1.8733,-1.8751,-1.8731,-1.8745,-1.8745,-1.8742,-1.8786,-1.8792,-1.8823,-1.8772,-1.8772,-1.8773,0,-1.8672,-1.8682,-1.8712,-1.8716,-1.8722,-1.8735,-1.8745,-1.8756,-1.8762,-1.8762,-1.8769,-1.8762,-1.8779,-1.8763,-1.8784,-1.8771,-1.8776,-1.8777,-1.8778,-1.8778,-1.876,-1.8785,-1.8833,-1.8837,-1.878,-1.8779,-1.8779,0,-1.8703,-1.8724,-1.8744,-1.8748,-1.8755,-1.8764,-1.8767,-1.8773,-1.8779,-1.8788,-1.8792,-1.8803,-1.8808,-1.8816,-1.8812,-1.8801,-1.8834,-1.8818,-1.8833,-1.8833,-1.8839,-1.8839,-1.8887,-1.8846,-1.8845,-1.8845,-1.8845,0,-1.8743,-1.8761,-1.8758,-1.877,-1.879,-1.8786,-1.8805,-1.8807,-1.8811,-1.8823,-1.8815,-1.8826,-1.8821,-1.8832,-1.8829,-1.8847,-1.885,-1.8849,-1.8848,-1.8849,-1.8849,-1.8851,-1.8848,-1.8847,-1.8846,-1.8846,-1.8846,0,-1.8781,-1.878,-1.88,-1.8805,-1.8806,-1.882,-1.8823,-1.8834,-1.8834,-1.8849,-1.8852,-1.8851,-1.8863,-1.8861,-1.8874,-1.8872,-1.8894,-1.8891,-1.8892,-1.889,-1.8905,-1.8903,-1.8955,-1.8961,-1.8917,-1.8918,-1.8918,0,-1.8805,-1.8819,-1.8824,-1.8831,-1.8835,-1.8847,-1.8854,-1.885,-1.8857,-1.8865,-1.8875,-1.8886,-1.8894,-1.8914,-1.8914,-1.8924,-1.892,-1.8938,-1.8921,-1.8921,-1.8918,-1.8917,-1.8917,-1.894,-1.8941,-1.8941,-1.8942,0,-1.8848,-1.8847,-1.8857,-1.8867,-1.8875,-1.8883,-1.8889,-1.8896,-1.8892,-1.8901,-1.8913,-1.8919,-1.8933,-1.8943,-1.8952,-1.8955,-1.8947,-1.8947,-1.895,-1.8951,-1.895,-1.8949,-1.8899,-1.8945,-1.8945,-1.8945,-1.8944,-1.8944,-1.8879,-1.889,-1.8895,-1.8906,-1.8911,-1.8917,-1.8927,-1.8928,-1.8938,-1.8949,-1.8946,-1.8959,-1.8964,-1.8975,-1.8978,-1.8988,-1.8981,-1.8987,-1.8988,-1.8989,-1.899,-1.895,-1.899,-1.899,-1.899,-1.899,-1.899,0,-1.892,-1.8923,-1.8933,-1.8943,-1.8951,-1.8944,-1.8951,-1.8958,-1.897,-1.8976,-1.8984,-1.8997,-1.9007,-1.9008,-1.9018,-1.9025,-1.9022,-1.9028,-1.9026,-1.9027,-1.8997,-1.8992,-1.903,-1.903,-1.903,-1.903,-1.903,-1.903,-1.8942,-1.896,-1.8959,-1.8979,-1.8981,-1.8994,-1.8998,-1.9004,-1.9008,-1.9023,-1.9031,-1.9032,-1.9035,-1.9044,-1.9053,-1.9053,-1.9056,-1.9063,-1.9062,-1.9033,-1.9029,-1.9025,-1.902,-1.9064,-1.9064,-1.9091,-1.9091,-1.9091]},{"header":{"parameterUnit":"m.s-1","parameterCategory":1,"la1":30.2991,"la2":30.254,"lo1":-89.0895,"lo2":-89.0444,"dy":0.0017,"dx":0.0017,"nx":28,"ny":28,"refTime":"2023-09-01T03:00:00:Z","depth":0,"parameterNumber":3,"parameterNumberName":"V-component_of_WINDS"},"data":[0,0,0,0,0,0,0,0,0,0,0,0,0,0,0,0,0,0,0,0,0,0,0,0,0,0,0,0,0,0,0,0,0,0,0,0,0,0,0,0,0,0,0,0,0,0,0,0,0,0,0,0,0,0,0,0,0,0,-2.3463,-2.3464,0,-2.3579,-2.358,-2.3581,-2.3619,-2.3618,-2.3618,-2.3617,-2.3732,-2.3736,-2.3739,0,0,0,0,0,0,0,0,0,0,0,0,0,-2.3269,-2.3273,-2.3462,-2.3464,-2.3465,-2.3578,-2.358,-2.3582,-2.3619,-2.3618,-2.3618,-2.3617,-2.3731,-2.3735,-2.374,0,0,0,0,0,0,0,0,0,0,0,0,0,-2.3366,-2.3274,-2.3462,-2.3498,-2.3502,-2.3578,-2.358,-2.3582,-2.3619,-2.3618,-2.3617,-2.3617,-2.373,-2.3735,-2.374,-2.3788,0,0,-2.3756,-2.3759,0,0,0,0,0,0,0,0,-2.336,-2.3373,-2.3491,-2.3495,-2.35,-2.3584,-2.3554,-2.3651,-2.3619,-2.3574,-2.3617,-2.3616,-2.3683,-2.3692,-2.3716,-2.3793,-2.3798,-2.3757,-2.376,-2.3762,-2.3764,0,0,0,0,0,0,0,-2.3354,-2.3368,-2.3508,-2.3493,-2.3498,-2.3507,-2.3519,-2.3573,-2.3631,-2.3578,-2.3581,-2.3595,-2.3685,-2.371,-2.3718,-2.38,-2.3757,-2.3761,-2.3765,-2.3767,-2.3922,-2.3923,0,0,0,0,0,0,-2.3341,-2.3362,-2.3505,-2.3512,-2.3427,-2.3511,-2.3525,-2.3558,-2.3631,-2.3642,-2.3595,-2.3596,-2.3702,-2.3712,-2.3723,-2.3783,-2.3762,-2.3767,-2.377,-2.3921,-2.3922,-2.3923,0,0,0,0,0,0,-2.3337,-2.3354,-2.35,-2.3438,-2.3457,-2.3515,-2.3551,-2.356,-2.3585,-2.3644,-2.3654,-2.361,-2.3701,-2.3715,-2.3772,-2.3788,-2.377,-2.3774,-2.392,-2.3921,-2.3923,-2.3904,0,0,0,0,0,0,-2.3331,-2.3352,-2.3372,-2.3438,-2.346,-2.3548,-2.3552,-2.3563,-2.3595,-2.3597,-2.3661,-2.367,-2.3702,-2.3763,-2.3777,-2.3795,-2.3779,-2.3919,-2.3921,-2.3922,-2.3904,-2.3905,-2.3906,0,0,0,0,0,-2.3324,-2.3361,-2.3373,-2.339,-2.3486,-2.3549,-2.3561,-2.3598,-2.3596,-2.3615,-2.3653,-2.3668,-2.3784,-2.3769,-2.3784,-2.3804,-2.3918,-2.392,-2.3922,-2.3903,-2.3905,-2.3906,0,0,0,0,0,0,-2.3294,-2.3371,-2.3384,-2.3444,-2.349,-2.3555,-2.3581,-2.3599,-2.3645,-2.3645,-2.3687,-2.3701,-2.3754,-2.3785,-2.3767,-2.3854,-2.3851,-2.3857,-2.3832,-2.3834,-2.3835,-2.3826,-2.3783,0,0,0,0,0,-2.3294,-2.334,-2.3404,-2.345,-2.3473,-2.3523,-2.3552,-2.3576,-2.3625,-2.3644,-2.3686,-2.3731,-2.3778,-2.3808,-2.3854,-2.3909,-2.3922,-2.393,-2.3931,-2.3931,-2.3935,-2.3966,-2.3969,-2.393,-2.393,-2.393,0,0,-2.3295,-2.3343,-2.3369,-2.3446,-2.3484,-2.3529,-2.3539,-2.3586,-2.362,-2.3651,-2.3707,-2.3739,-2.3792,-2.3848,-2.3875,-2.3875,-2.3949,-2.3934,-2.3934,-2.3938,-2.3968,-2.3972,-2.3975,-2.3932,-2.3932,-2.3931,0,0,-2.332,-2.3361,-2.3404,-2.3443,-2.3501,-2.3534,-2.3544,-2.3607,-2.363,-2.3688,-2.3712,-2.3751,-2.3831,-2.3868,-2.3897,-2.3936,-2.3951,-2.3949,-2.3955,-2.3984,-2.3987,-2.399,-2.4003,-2.4007,-2.3953,-2.3953,-2.3953,0,-2.3313,-2.3384,-2.3423,-2.347,-2.3502,-2.3534,-2.3577,-2.3612,-2.3682,-2.3703,-2.3703,-2.3803,-2.3841,-2.3906,-2.3915,-2.3938,-2.395,-2.3942,-2.3984,-2.3987,-2.399,-2.4003,-2.4008,-2.3952,-2.3952,-2.3953,-2.3953,0,-2.3372,-2.342,-2.3448,-2.3516,-2.3551,-2.3595,-2.3641,-2.3672,-2.3693,-2.3726,-2.3783,-2.383,-2.3886,-2.3903,-2.3924,-2.397,-2.3969,-2.3976,-2.3974,-2.3993,-2.4005,-2.4011,-2.3951,-2.3952,-2.3952,-2.3952,0,0,-2.338,-2.347,-2.348,-2.3511,-2.3578,-2.3615,-2.366,-2.3716,-2.3741,-2.3788,-2.3826,-2.3893,-2.39,-2.3933,-2.3958,-2.3984,-2.401,-2.3988,-2.3989,-2.3989,-2.4063,-2.4057,-2.4062,-2.4021,-2.4022,-2.4023,-2.4059,0,-2.3413,-2.3497,-2.3534,-2.36,-2.3644,-2.3675,-2.3714,-2.3758,-2.379,-2.3831,-2.3865,-2.3912,-2.3917,-2.3938,-2.3964,-2.4001,-2.4025,-2.3999,-2.4056,-2.4057,-2.4041,-2.4069,-2.4063,-2.4094,-2.4064,-2.4065,-2.4065,0,-2.3463,-2.3511,-2.3582,-2.3643,-2.3663,-2.3698,-2.3752,-2.3791,-2.3842,-2.3863,-2.39,-2.3924,-2.3971,-2.3967,-2.4032,-2.4013,-2.4038,-2.406,-2.4062,-2.4068,-2.4062,-2.4075,-2.4105,-2.411,-2.4074,-2.4073,-2.4072,0,-2.3461,-2.3543,-2.3596,-2.3622,-2.3695,-2.3719,-2.375,-2.38,-2.3831,-2.3878,-2.3898,-2.3949,-2.3977,-2.4015,-2.4052,-2.4046,-2.4113,-2.4112,-2.4131,-2.413,-2.4143,-2.4142,-2.4177,-2.416,-2.416,-2.416,-2.416,0,-2.3493,-2.3535,-2.3597,-2.3629,-2.3676,-2.3718,-2.3763,-2.3797,-2.3841,-2.3879,-2.3908,-2.3944,-2.399,-2.4031,-2.406,-2.4109,-2.4121,-2.4139,-2.4146,-2.4136,-2.4134,-2.4152,-2.4151,-2.4162,-2.4161,-2.4161,-2.4161,0,-2.3498,-2.3542,-2.3601,-2.3666,-2.3683,-2.3715,-2.3769,-2.3801,-2.3834,-2.3883,-2.3896,-2.3948,-2.3997,-2.4038,-2.4102,-2.4122,-2.4173,-2.4181,-2.4156,-2.4159,-2.4176,-2.4173,-2.4224,-2.4232,-2.421,-2.421,-2.4211,0,-2.3516,-2.3549,-2.3617,-2.3646,-2.3677,-2.3722,-2.3755,-2.3797,-2.3829,-2.3889,-2.3913,-2.3965,-2.4009,-2.4086,-2.4128,-2.4177,-2.4187,-2.4201,-2.4194,-2.4183,-2.4186,-2.4184,-2.4187,-2.4201,-2.4201,-2.4201,-2.4201,0,-2.3542,-2.3562,-2.3608,-2.3661,-2.3699,-2.3743,-2.3787,-2.3808,-2.3858,-2.3892,-2.3944,-2.3978,-2.4044,-2.4095,-2.4149,-2.418,-2.4198,-2.4203,-2.421,-2.42,-2.4184,-2.4192,-2.4157,-2.4202,-2.4202,-2.4202,-2.4202,-2.4202,-2.3554,-2.3584,-2.3637,-2.3687,-2.3725,-2.3766,-2.3799,-2.3837,-2.3881,-2.3939,-2.3961,-2.4013,-2.4062,-2.4137,-2.4168,-2.4209,-2.4211,-2.4221,-2.4223,-2.4225,-2.4223,-2.4178,-2.4219,-2.4219,-2.4219,-2.4219,-2.4219,0,-2.3581,-2.3616,-2.3662,-2.3724,-2.3763,-2.3778,-2.3828,-2.3859,-2.3906,-2.395,-2.3993,-2.4052,-2.4101,-2.4147,-2.4199,-2.4222,-2.4232,-2.4234,-2.4232,-2.4239,-2.4219,-2.4207,-2.4225,-2.4225,-2.4225,-2.4225,-2.4225,-2.4225,-2.3599,-2.3652,-2.3678,-2.3749,-2.3784,-2.3837,-2.3864,-2.3901,-2.3937,-2.4002,-2.4043,-2.4073,-2.4119,-2.4173,-2.4219,-2.4231,-2.4248,-2.4248,-2.4262,-2.4242,-2.4241,-2.4239,-2.4229,-2.4251,-2.4251,-2.4279,-2.4279,-2.428]}]]